| time (UTC) | temp F | wind direction | speed knots | gust knots | rain 1hr in | rain 24hr in | rain mn in | humidity % | barometer mb |
| 20260901103011 | 57 | 164 | 0.0 | 0.0 | 0.00 | 0.00 | 0.00 | 67 | 1011.5 |
| 20260901101529 | 57 | 164 | 0.0 | 0.0 | 0.00 | 0.00 | 0.00 | 67 | 1011.5 |
| 20260901100031 | 57 | 137 | 0.0 | 0.9 | 0.00 | 0.00 | 0.00 | 67 | 1011.5 |
| 20260901094527 | 58 | 136 | 0.0 | 0.9 | 0.00 | 0.00 | 0.00 | 67 | 1011.5 |
| 20260901093023 | 58 | 141 | 0.0 | 0.0 | 0.00 | 0.00 | 0.00 | 67 | 1011.6 |
| 20260901091516 | 58 | 86 | 0.0 | 0.9 | 0.00 | 0.00 | 0.00 | 67 | 1011.4 |
| 20260901090016 | 58 | 342 | 0.0 | 0.0 | 0.00 | 0.00 | 0.00 | 67 | 1011.3 |
| 20260901084513 | 58 | 149 | 0.0 | 0.0 | 0.00 | 0.00 | 0.00 | 67 | 1011.3 |
| 20260901083032 | 58 | 149 | 0.0 | 0.0 | 0.00 | 0.00 | 0.00 | 66 | 1011.3 |
| 20260901081530 | 58 | 184 | 0.0 | 0.0 | 0.00 | 0.00 | 0.00 | 66 | 1011.3 |
| 20260901080032 | 59 | 184 | 0.0 | 0.0 | 0.00 | 0.00 | 0.00 | 66 | 1011.3 |
| 20260901074527 | 59 | 169 | 0.0 | 0.0 | 0.00 | 0.00 | 0.00 | 66 | 1011.3 |
| 20260901073025 | 59 | 143 | 0.0 | 0.0 | 0.00 | 0.00 | 0.00 | 66 | 1011.1 |
| 20260901071526 | 59 | 172 | 0.0 | 0.9 | 0.00 | 0.00 | 0.00 | 66 | 1011.1 |
| 20260901070017 | 59 | 115 | 0.0 | 0.9 | 0.00 | 0.00 | 0.00 | 65 | 1011.1 |
| 20260901064542 | 60 | 184 | 0.0 | 0.9 | 0.00 | 0.00 | 0.00 | 65 | 1011.0 |
| 20260901063036 | 60 | 16 | 0.0 | 1.7 | 0.00 | 0.00 | 0.00 | 65 | 1010.8 |
| 20260901061534 | 60 | 260 | 0.0 | 0.0 | 0.00 | 0.00 | 0.00 | 64 | 1010.8 |
| 20260901060030 | 60 | 260 | 0.0 | 0.9 | 0.00 | 0.00 | 0.00 | 64 | 1010.6 |
| 20260901054528 | 61 | 271 | 0.0 | 0.9 | 0.00 | 0.00 | 0.00 | 64 | 1010.4 |
| 20260901053023 | 61 | 330 | 0.0 | 2.6 | 0.00 | 0.00 | 0.00 | 64 | 1010.3 |
| 20260901051520 | 61 | 283 | 0.0 | 2.6 | 0.00 | 0.00 | 0.00 | 63 | 1010.2 |
| 20260901050036 | 61 | 163 | 0.0 | 1.7 | 0.00 | 0.00 | 0.00 | 63 | 1010.0 |
| 20260901044540 | 62 | 182 | 0.9 | 4.3 | 0.00 | 0.00 | 0.00 | 62 | 1009.8 |
| 20260901043014 | 62 | 323 | 0.0 | 4.3 | 0.00 | 0.00 | 0.00 | 61 | 1009.7 |
| 20260901041509 | 63 | 298 | 0.0 | 3.5 | 0.00 | 0.00 | 0.00 | 59 | 1009.3 |
| 20260901040010 | 65 | 148 | 0.0 | 4.3 | 0.00 | 0.00 | 0.00 | 56 | 1009.2 |
| 20260901034503 | 66 | 205 | 0.0 | 2.6 | 0.00 | 0.00 | 0.00 | 53 | 1008.8 |
| 20260901033004 | 67 | 18 | 0.0 | 7.8 | 0.00 | 0.00 | 0.00 | 52 | 1008.6 |
| 20260901031504 | 68 | 330 | 0.0 | 5.2 | 0.00 | 0.00 | 0.00 | 49 | 1008.4 |
| 20260901030022 | 69 | 300 | 1.7 | 6.1 | 0.00 | 0.00 | 0.00 | 48 | 1008.2 |
| 20260901024526 | 70 | 323 | 0.9 | 4.3 | 0.00 | 0.00 | 0.00 | 45 | 1008.0 |
| 20260901023012 | 72 | 308 | 2.6 | 6.1 | 0.00 | 0.00 | 0.00 | 43 | 1007.8 |
| 20260901021510 | 74 | 312 | 1.7 | 4.3 | 0.00 | 0.00 | 0.00 | 40 | 1007.8 |
| 20260901020006 | 75 | 326 | 0.9 | 4.3 | 0.00 | 0.00 | 0.00 | 38 | 1007.7 |
| 20260901014504 | 77 | 295 | 1.7 | 4.3 | 0.00 | 0.00 | 0.00 | 37 | 1007.7 |
| 20260901013004 | 79 | 317 | 1.7 | 5.2 | 0.00 | 0.00 | 0.00 | 35 | 1007.6 |
| 20260901011525 | 82 | 335 | 2.6 | 7.0 | 0.00 | 0.00 | 0.00 | 32 | 1007.5 |
| 20260901010023 | 86 | 124 | 0.0 | 0.9 | 0.00 | 0.00 | 0.00 | 24 | 1007.4 |
| 20260901004532 | 87 | 120 | 0.0 | 0.9 | 0.00 | 0.00 | 0.00 | 24 | 1007.5 |
| 20260901003010 | 87 | 134 | 0.0 | 0.9 | 0.00 | 0.00 | 0.00 | 25 | 1007.6 |
| 20260901001522 | 86 | 141 | 0.0 | 0.9 | 0.00 | 0.00 | 0.00 | 26 | 1007.6 |
| 20260901000013 | 86 | 335 | 0.0 | 0.9 | 0.00 | 0.00 | 0.00 | 27 | 1007.6 |
| 20260831234530 | 87 | 127 | 0.0 | 0.9 | 0.00 | 0.00 | 0.00 | 25 | 1007.8 |
| 20260831233029 | 87 | 124 | 0.0 | 2.6 | 0.00 | 0.00 | 0.00 | 28 | 1007.8 |
| 20260831231527 | 86 | 314 | 0.0 | 2.6 | 0.00 | 0.00 | 0.00 | 28 | 1007.9 |
| 20260831230025 | 86 | 276 | 0.0 | 0.9 | 0.00 | 0.00 | 0.00 | 28 | 1008.0 |
| 20260831224518 | 84 | 21 | 0.0 | 0.9 | 0.00 | 0.00 | 0.00 | 30 | 1008.0 |
| 20260831223016 | 84 | 42 | 0.0 | 0.9 | 0.00 | 0.00 | 0.00 | 31 | 1008.1 |
| 20260831221523 | 82 | 319 | 0.0 | 0.9 | 0.00 | 0.00 | 0.00 | 33 | 1008.3 |
| 20260831220034 | 81 | 312 | 0.0 | 1.7 | 0.00 | 0.00 | 0.00 | 34 | 1008.6 |
| 20260831214558 | 80 | 301 | 0.0 | 1.7 | 0.00 | 0.00 | 0.00 | 33 | 1008.7 |
| 20260831213027 | 80 | 57 | 0.0 | 2.6 | 0.00 | 0.00 | 0.00 | 34 | 1008.9 |
| 20260831211527 | 79 | 51 | 0.0 | 0.9 | 0.00 | 0.00 | 0.00 | 36 | 1009.0 |
| 20260831210003 | 77 | 353 | 0.0 | 3.5 | 0.00 | 0.00 | 0.00 | 39 | 1009.2 |
| 20260831204518 | 78 | 218 | 0.0 | 1.7 | 0.00 | 0.00 | 0.00 | 38 | 1009.3 |
| 20260831203014 | 76 | 252 | 0.0 | 1.7 | 0.00 | 0.00 | 0.00 | 40 | 1009.5 |
| 20260831201526 | 77 | 304 | 0.0 | 3.5 | 0.00 | 0.00 | 0.00 | 38 | 1009.7 |
| 20260831200016 | 74 | 117 | 0.0 | 2.6 | 0.00 | 0.00 | 0.00 | 42 | 1009.7 |
| 20260831194506 | 73 | 321 | 0.0 | 1.7 | 0.00 | 0.00 | 0.00 | 42 | 1009.9 |
| 20260831193007 | 72 | 223 | 0.0 | 2.6 | 0.00 | 0.00 | 0.00 | 45 | 1010.1 |
| 20260831191503 | 73 | 302 | 0.0 | 1.7 | 0.00 | 0.00 | 0.00 | 43 | 1010.3 |
| 20260831190039 | 71 | 80 | 0.0 | 0.9 | 0.00 | 0.00 | 0.00 | 50 | 1010.6 |
| 20260831184522 | 71 | 302 | 0.0 | 2.6 | 0.00 | 0.00 | 0.00 | 51 | 1010.8 |
| 20260831183025 | 69 | 285 | 0.0 | 1.7 | 0.00 | 0.00 | 0.00 | 53 | 1011.0 |
| 20260831181514 | 69 | 298 | 0.0 | 1.7 | 0.00 | 0.00 | 0.00 | 53 | 1011.0 |
| 20260831180012 | 68 | 124 | 0.0 | 2.6 | 0.00 | 0.00 | 0.00 | 55 | 1011.2 |
| 20260831174506 | 67 | 124 | 0.0 | 1.7 | 0.00 | 0.00 | 0.00 | 58 | 1011.4 |
| 20260831173003 | 66 | 133 | 0.0 | 0.9 | 0.00 | 0.00 | 0.00 | 59 | 1011.5 |
| 20260831171527 | 65 | 133 | 0.0 | 1.7 | 0.00 | 0.00 | 0.00 | 61 | 1011.5 |
| 20260831170026 | 63 | 163 | 0.0 | 0.0 | 0.00 | 0.00 | 0.00 | 64 | 1011.8 |
| 20260831164530 | 62 | 128 | 0.0 | 2.6 | 0.00 | 0.00 | 0.00 | 66 | 1012.0 |
| 20260831163037 | 60 | 134 | 0.0 | 0.0 | 0.00 | 0.00 | 0.00 | 68 | 1012.1 |
| 20260831161519 | 59 | 138 | 0.0 | 0.9 | 0.00 | 0.00 | 0.00 | 69 | 1012.3 |
| 20260831160028 | 58 | 128 | 0.0 | 0.0 | 0.00 | 0.00 | 0.00 | 72 | 1012.3 |
| 20260831154539 | 56 | 82 | 0.0 | 0.0 | 0.00 | 0.00 | 0.00 | 74 | 1012.3 |
| 20260831153033 | 55 | 58 | 0.0 | 0.0 | 0.00 | 0.00 | 0.00 | 79 | 1012.3 |
| 20260831151531 | 53 | 61 | 0.0 | 0.0 | 0.00 | 0.00 | 0.00 | 80 | 1012.3 |
| 20260831150028 | 52 | 61 | 0.0 | 0.0 | 0.00 | 0.00 | 0.00 | 80 | 1012.4 |
| 20260831144525 | 51 | 61 | 0.0 | 0.0 | 0.00 | 0.00 | 0.00 | 79 | 1012.4 |
| 20260831143028 | 50 | 61 | 0.0 | 0.0 | 0.00 | 0.00 | 0.00 | 77 | 1012.4 |
| 20260831141524 | 49 | 61 | 0.0 | 0.0 | 0.00 | 0.00 | 0.00 | 75 | 1012.3 |
| 20260831140030 | 49 | 61 | 0.0 | 0.0 | 0.00 | 0.00 | 0.00 | 74 | 1012.3 |
| 20260831134535 | 49 | 61 | 0.0 | 0.0 | 0.00 | 0.00 | 0.00 | 73 | 1012.4 |
| 20260831133035 | 49 | 61 | 0.0 | 0.0 | 0.00 | 0.00 | 0.00 | 72 | 1012.5 |
| 20260831131541 | 50 | 61 | 0.0 | 0.0 | 0.00 | 0.00 | 0.00 | 72 | 1012.6 |
| 20260831130036 | 50 | 61 | 0.0 | 0.0 | 0.00 | 0.00 | 0.00 | 72 | 1012.7 |
| 20260831124536 | 50 | 61 | 0.0 | 0.0 | 0.00 | 0.00 | 0.00 | 72 | 1012.7 |
| 20260831123024 | 50 | 61 | 0.0 | 0.0 | 0.00 | 0.00 | 0.00 | 70 | 1012.7 |
| 20260831121520 | 50 | 61 | 0.0 | 0.0 | 0.00 | 0.00 | 0.00 | 70 | 1012.8 |
| 20260831120006 | 51 | 61 | 0.0 | 0.0 | 0.00 | 0.00 | 0.00 | 70 | 1012.8 |
| 20260831114505 | 51 | 62 | 0.0 | 0.0 | 0.00 | 0.00 | 0.00 | 69 | 1012.9 |
| 20260831113007 | 51 | 61 | 0.0 | 0.0 | 0.00 | 0.00 | 0.00 | 68 | 1013.0 |
| 20260831111513 | 51 | 61 | 0.0 | 0.0 | 0.00 | 0.00 | 0.00 | 68 | 1013.1 |
| 20260831110006 | 52 | 61 | 0.0 | 0.0 | 0.00 | 0.00 | 0.00 | 68 | 1013.2 |
| 20260831104505 | 52 | 61 | 0.0 | 0.0 | 0.00 | 0.00 | 0.00 | 68 | 1013.1 |